GW5725 Weather Reports


time (UTC)temp
C
wind
direction
speed
KPH
gust
KPH
rain 1hr
cm
rain 24hr
cm
rain mn
cm
humidity
%
barometer
mb
20260506195507 25 352 4.8 17.7 0.00 0.00 0.00 60 1013.5
20260506195008 25 201 4.8 17.7 0.00 0.00 0.00 62 1013.5
20260506194513 25 325 4.8 19.3 0.00 0.00 0.00 62 1013.5
20260506194009 25 207 4.8 19.3 0.00 0.00 0.00 62 1013.6
20260506193507 25 313 4.8 14.5 0.00 0.00 0.00 62 1013.7
20260506193020 25 336 4.8 14.5 0.00 0.00 0.00 63 1013.7
20260506192506 25 35 1.6 14.5 0.00 0.00 0.00 64 1013.8
20260506192008 25 76 1.6 14.5 0.00 0.00 0.00 65 1013.8
20260506191523 25 136 4.8 16.1 0.00 0.00 0.00 63 1014.0
20260506191010 25 325 6.4 16.1 0.00 0.00 0.00 64 1014.2
20260506190508 25 300 3.2 12.9 0.00 0.00 0.00 65 1014.4
20260506190007 25 342 4.8 14.5 0.00 0.00 0.00 64 1014.1
20260506185503 24 252 1.6 14.5 0.00 0.00 0.00 65 1014.2
20260506185005 24 277 1.6 9.7 0.00 0.00 0.00 66 1014.3
20260506184509 24 246 3.2 20.9 0.00 0.00 0.00 65 1014.3
20260506184007 24 9 4.8 20.9 0.00 0.00 0.00 65 1014.3
20260506183507 24 178 1.6 9.7 0.00 0.00 0.00 65 1014.3
20260506183014 23 269 1.6 11.3 0.00 0.00 0.00 67 1014.1
20260506182506 23 227 3.2 12.9 0.00 0.00 0.00 67 1014.1
20260506182011 23 194 3.2 12.9 0.00 0.00 0.00 68 1014.0
20260506181520 23 234 1.6 8.0 0.00 0.00 0.00 68 1013.9
20260506181010 23 240 1.6 8.0 0.00 0.00 0.00 67 1014.0
20260506180509 23 252 1.6 4.8 0.00 0.00 0.00 66 1014.2
20260506180028 23 194 1.6 6.4 0.00 0.00 0.00 69 1014.2
20260506175509 23 294 1.6 9.7 0.00 0.00 0.00 68 1014.2
20260506175002 23 238 1.6 9.7 0.00 0.00 0.00 69 1014.0
20260506174505 22 142 1.6 9.7 0.00 0.00 0.00 71 1014.3
20260506174009 22 190 3.2 9.7 0.00 0.00 0.00 70 1014.3
20260506173507 22 223 3.2 6.4 0.00 0.00 0.00 70 1014.6
20260506173013 22 253 1.6 4.8 0.00 0.00 0.00 73 1014.6
20260506172509 21 249 1.6 4.8 0.00 0.00 0.00 74 1014.7
20260506172008 21 294 1.6 4.8 0.00 0.00 0.00 75 1014.9
20260506171518 21 336 1.6 14.5 0.00 0.00 0.00 74 1014.6
20260506171008 21 227 4.8 14.5 0.00 0.00 0.00 74 1015.5
20260506170509 21 211 3.2 8.0 0.00 0.00 0.00 75 1015.7
20260506170025 21 227 1.6 6.4 0.00 0.00 0.00 73 1015.5
20260506165508 21 286 3.2 6.4 0.00 0.00 0.00 72 1015.6
20260506165009 21 261 0.0 6.4 0.00 0.00 0.00 71 1016.0
20260506164533 21 246 1.6 11.3 0.00 0.00 0.00 70 1016.1
20260506164009 21 248 1.6 11.3 0.00 0.00 0.00 70 1015.7
20260506163507 21 240 1.6 4.8 0.00 0.00 0.00 71 1015.8
20260506163012 21 9 1.6 4.8 0.00 0.00 0.00 73 1015.8
20260506162509 21 306 1.6 6.4 0.00 0.00 0.00 73 1016.0
20260506162011 21 248 0.0 6.4 0.00 0.00 0.00 74 1015.8
20260506161516 21 257 0.0 4.8 0.00 0.00 0.00 73 1015.6
20260506161009 21 232 0.0 8.0 0.00 0.00 0.00 72 1015.4
20260506160510 21 360 3.2 8.0 0.00 0.00 0.00 71 1015.5
20260506160022 21 329 1.6 6.4 0.00 0.00 0.00 70 1015.6
20260506155509 21 275 1.6 6.4 0.00 0.00 0.00 71 1015.6
20260506155014 21 232 1.6 6.4 0.00 0.00 0.00 70 1015.6
20260506154526 21 224 1.6 4.8 0.00 0.00 0.00 71 1015.6
20260506154012 21 238 1.6 4.8 0.00 0.00 0.00 71 1015.6
20260506153513 21 247 1.6 4.8 0.00 0.00 0.00 72 1015.6
20260506153006 21 305 3.2 4.8 0.00 0.00 0.00 72 1015.5
20260506152506 20 245 1.6 4.8 0.00 0.00 0.00 71 1015.2
20260506152008 20 352 0.0 3.2 0.00 0.00 0.00 72 1015.3
20260506151528 20 360 0.0 6.4 0.00 0.00 0.00 73 1015.3
20260506151009 20 283 0.0 6.4 0.00 0.00 0.00 72 1015.3
20260506150507 20 217 1.6 6.4 0.00 0.00 0.00 71 1015.2
20260506150018 20 349 0.0 6.4 0.00 0.00 0.00 70 1015.1
20260506145512 20 111 0.0 6.4 0.00 0.00 0.00 71 1015.1
20260506145009 20 266 1.6 9.7 0.00 0.00 0.00 70 1015.1
20260506144525 20 352 3.2 9.7 0.00 0.00 0.00 70 1015.1
20260506144015 20 232 0.0 4.8 0.00 0.00 0.00 72 1015.0
20260506143514 20 267 1.6 4.8 0.00 0.00 0.00 71 1014.9
20260506143026 20 341 1.6 4.8 0.00 0.00 0.00 72 1014.8
20260506142508 20 225 1.6 9.7 0.00 0.00 0.00 71 1014.6
20260506142006 20 67 1.6 9.7 0.00 0.00 0.00 72 1014.4
20260506141511 20 150 1.6 4.8 0.00 0.00 0.00 72 1014.5
20260506141007 20 279 1.6 4.8 0.00 0.00 0.00 72 1014.5
20260506140508 20 85 1.6 4.8 0.00 0.00 0.00 73 1014.3
20260506140022 20 232 0.0 4.8 0.00 0.00 0.00 73 1014.4
20260506135507 19 220 0.0 8.0 0.00 0.00 0.00 73 1014.6
20260506135010 19 321 1.6 8.0 0.00 0.00 0.00 74 1014.5
20260506134522 19 258 0.0 4.8 0.00 0.00 0.00 74 1014.4
20260506134010 19 308 1.6 8.0 0.00 0.00 0.00 75 1014.3
20260506133513 19 190 1.6 9.7 0.00 0.00 0.00 74 1014.3
20260506133040 18 235 1.6 9.7 0.00 0.00 0.00 74 1014.5
20260506132510 18 228 1.6 4.8 0.00 0.00 0.00 75 1014.5
20260506132015 18 239 1.6 3.2 0.00 0.00 0.00 75 1014.5
20260506131532 18 334 1.6 4.8 0.00 0.00 0.00 75 1014.6
20260506131006 18 243 1.6 4.8 0.00 0.00 0.00 76 1014.6
20260506130515 18 170 1.6 4.8 0.00 0.00 0.00 76 1014.6
20260506130018 18 207 0.0 3.2 0.00 0.00 0.00 76 1014.7
20260506125507 17 257 0.0 4.8 0.00 0.00 0.00 76 1014.7
20260506125009 18 214 1.6 4.8 0.00 0.00 0.00 76 1014.6
20260506124519 18 215 1.6 6.4 0.00 0.00 0.00 76 1014.6
20260506124007 18 233 1.6 6.4 0.00 0.00 0.00 75 1014.4
20260506123510 18 234 1.6 3.2 0.00 0.00 0.00 75 1014.2
20260506123024 18 263 1.6 6.4 0.00 0.00 0.00 75 1014.1
20260506122509 18 210 1.6 8.0 0.00 0.00 0.00 74 1014.1
20260506122006 18 246 1.6 8.0 0.00 0.00 0.00 75 1014.1
20260506121507 18 146 0.0 3.2 0.00 0.00 0.00 75 1014.2
20260506121005 18 193 0.0 3.2 0.00 0.00 0.00 75 1014.3
20260506120507 17 199 0.0 3.2 0.00 0.00 0.00 76 1014.3
20260506120027 17 199 0.0 3.2 0.00 0.00 0.00 75 1014.3
20260506115506 17 173 0.0 3.2 0.00 0.00 0.00 75 1014.4
20260506115006 17 167 0.0 3.2 0.00 0.00 0.00 76 1014.5
20260506114513 17 285 0.0 3.2 0.00 0.00 0.00 75 1014.5
20260506114003 17 346 1.6 4.8 0.00 0.00 0.00 76 1014.7
20260506113503 17 335 0.0 4.8 0.00 0.00 0.00 76 1014.6
20260506113008 17 336 0.0 4.8 0.00 0.00 0.00 76 1014.5
20260506112503 17 88 0.0 4.8 0.00 0.00 0.00 76 1014.3
20260506112003 17 338 0.0 3.2 0.00 0.00 0.00 76 1014.1
20260506111508 17 213 1.6 3.2 0.00 0.00 0.00 76 1014.0
20260506111006 17 262 1.6 3.2 0.00 0.00 0.00 76 1013.9
20260506110509 17 336 0.0 3.2 0.00 0.00 0.00 76 1013.9
20260506110012 17 264 0.0 4.8 0.00 0.00 0.00 76 1013.9
20260506105507 17 255 1.6 4.8 0.00 0.00 0.00 76 1013.8
20260506105007 17 246 1.6 6.4 0.00 0.00 0.00 76 1013.7
20260506104516 17 229 1.6 6.4 0.00 0.00 0.00 76 1013.6
20260506104007 17 269 0.0 4.8 0.00 0.00 0.00 76 1013.7
20260506103508 17 217 1.6 4.8 0.00 0.00 0.00 76 1013.7
20260506103005 17 59 0.0 4.8 0.00 0.00 0.00 76 1013.6
20260506102504 17 227 1.6 4.8 0.00 0.00 0.00 76 1013.5
20260506102004 17 221 1.6 4.8 0.00 0.00 0.00 75 1013.3
20260506101506 17 212 1.6 4.8 0.00 0.00 0.00 75 1013.4
20260506101005 17 178 1.6 4.8 0.00 0.00 0.00 75 1013.3
20260506100503 17 225 0.0 3.2 0.00 0.00 0.00 75 1013.2
20260506100023 17 207 1.6 3.2 0.00 0.00 0.00 75 1013.3
20260506095506 17 217 0.0 6.4 0.00 0.00 0.00 75 1013.3
20260506095006 17 250 1.6 6.4 0.00 0.00 0.00 75 1013.3
20260506094519 17 198 0.0 3.2 0.00 0.00 0.00 75 1013.4
20260506094007 17 215 1.6 4.8 0.00 0.00 0.00 75 1013.4
20260506093507 17 206 1.6 4.8 0.00 0.00 0.00 75 1013.5
20260506093020 17 227 1.6 8.0 0.00 0.00 0.00 76 1013.5
20260506092510 17 262 0.0 8.0 0.00 0.00 0.00 76 1013.5
20260506092003 17 244 1.6 6.4 0.00 0.00 0.00 76 1013.5
20260506091506 17 232 1.6 4.8 0.00 0.00 0.00 76 1013.4
20260506091004 17 225 1.6 4.8 0.00 0.00 0.00 76 1013.3
20260506090502 17 241 1.6 3.2 0.00 0.00 0.00 76 1013.4
20260506090009 17 232 0.0 3.2 0.00 0.00 0.00 75 1013.1
20260506085503 17 212 1.6 3.2 0.00 0.00 0.00 75 1013.4
20260506085006 17 109 0.0 3.2 0.00 0.00 0.00 75 1013.6
20260506084514 17 230 0.0 3.2 0.00 0.00 0.00 75 1013.7
20260506084009 17 238 1.6 3.2 0.00 0.00 0.00 74 1013.7
20260506083512 17 229 1.6 3.2 0.00 0.00 0.00 74 1013.7
20260506083020 17 215 0.0 3.2 0.00 0.00 0.00 74 1013.8
20260506082507 17 231 1.6 3.2 0.00 0.00 0.00 74 1013.8
20260506082013 17 219 0.0 3.2 0.00 0.00 0.00 74 1013.7
20260506081518 17 234 0.0 6.4 0.00 0.00 0.00 74 1013.9
20260506081003 17 223 0.0 6.4 0.00 0.00 0.00 74 1014.0
20260506080504 17 227 0.0 4.8 0.00 0.00 0.00 74 1014.2
20260506073509 17 242 1.6 6.4 0.00 0.00 0.00 73 1013.8
20260506073016 17 248 1.6 6.4 0.00 0.00 0.00 73 1013.9
20260506072509 17 153 3.2 6.4 0.00 0.00 0.00 73 1013.6
20260506072012 18 200 1.6 6.4 0.00 0.00 0.00 73 1013.8
20260506071522 18 204 1.6 6.4 0.00 0.00 0.00 73 1013.7
20260506071010 18 198 1.6 6.4 0.00 0.00 0.00 72 1013.6
20260506070507 18 211 1.6 4.8 0.00 0.00 0.00 72 1013.7
20260506062509 18 217 3.2 6.4 0.00 0.00 0.00 70 1014.2
20260506062008 18 219 0.0 16.1 0.00 0.00 0.00 69 1014.1
20260506061523 18 145 3.2 16.1 0.00 0.00 0.00 69 1014.0
20260506061011 18 220 1.6 11.3 0.00 0.00 0.00 68 1014.1
20260506060511 18 78 0.0 12.9 0.00 0.00 0.00 68 1014.1
20260506051007 18 221 1.6 6.4 0.00 0.00 0.00 62 1014.4
20260506050513 18 178 1.6 6.4 0.00 0.00 0.00 62 1014.5
20260506045010 18 208 1.6 6.4 0.00 0.00 0.00 60 1014.3
20260506044524 19 254 0.0 8.0 0.00 0.00 0.00 60 1014.3
20260506044010 19 159 0.0 8.0 0.00 0.00 0.00 59 1014.2
20260506043508 19 183 1.6 4.8 0.00 0.00 0.00 59 1014.0
20260506043010 19 118 1.6 4.8 0.00 0.00 0.00 59 1014.0
20260506042505 19 198 0.0 3.2 0.00 0.00 0.00 59 1014.1
20260506042010 19 178 0.0 3.2 0.00 0.00 0.00 58 1013.9
20260506041517 19 190 0.0 1.6 0.00 0.00 0.00 58 1013.7
20260506041011 19 184 0.0 0.0 0.00 0.00 0.00 57 1013.8
20260506040506 19 184 0.0 0.0 0.00 0.00 0.00 57 1013.9
20260506040035 19 184 0.0 0.0 0.00 0.00 0.00 56 1013.9
20260506035510 20 184 0.0 0.0 0.00 0.00 0.00 56 1013.9
20260506035010 20 184 0.0 0.0 0.00 0.00 0.00 56 1013.9
20260506034528 20 184 0.0 0.0 0.00 0.00 0.00 56 1013.9
20260506034007 20 184 0.0 0.0 0.00 0.00 0.00 56 1013.9
20260506033511 20 184 0.0 3.2 0.00 0.00 0.00 56 1014.0
20260506033026 20 162 0.0 3.2 0.00 0.00 0.00 56 1013.9
20260506032506 20 179 0.0 1.6 0.00 0.00 0.00 56 1013.9
20260506032009 19 179 0.0 1.6 0.00 0.00 0.00 56 1013.9
20260506031516 19 188 0.0 0.0 0.00 0.00 0.00 56 1014.1
20260506031007 19 188 0.0 0.0 0.00 0.00 0.00 56 1014.1
20260506030510 19 211 0.0 0.0 0.00 0.00 0.00 57 1014.2
20260506030021 19 211 0.0 0.0 0.00 0.00 0.00 57 1014.2
20260506025507 19 211 0.0 3.2 0.00 0.00 0.00 56 1014.3
20260506025010 20 211 0.0 3.2 0.00 0.00 0.00 55 1014.3
20260506024529 20 211 0.0 0.0 0.00 0.00 0.00 54 1014.2
20260506024003 20 211 0.0 0.0 0.00 0.00 0.00 54 1014.2
20260506023504 20 211 0.0 0.0 0.00 0.00 0.00 53 1014.1
20260506023007 20 211 0.0 1.6 0.00 0.00 0.00 53 1013.9
20260506022508 21 211 0.0 1.6 0.00 0.00 0.00 52 1013.8
20260506022008 21 211 0.0 0.0 0.00 0.00 0.00 51 1013.8
20260506021520 21 211 0.0 0.0 0.00 0.00 0.00 50 1013.8
20260506021005 21 211 0.0 3.2 0.00 0.00 0.00 50 1013.8
20260506020507 21 211 0.0 3.2 0.00 0.00 0.00 50 1013.7
20260506020020 21 211 0.0 3.2 0.00 0.00 0.00 50 1013.8
20260506015510 21 205 0.0 3.2 0.00 0.00 0.00 49 1013.8
20260506015014 21 184 0.0 3.2 0.00 0.00 0.00 49 1013.8
20260506014522 21 184 0.0 3.2 0.00 0.00 0.00 49 1013.9
20260506014009 21 184 0.0 3.2 0.00 0.00 0.00 49 1013.9
20260506013510 22 184 0.0 3.2 0.00 0.00 0.00 48 1014.0
20260506013008 22 184 0.0 1.6 0.00 0.00 0.00 48 1013.9
20260506012504 22 195 0.0 0.0 0.00 0.00 0.00 47 1013.9
20260506012008 22 178 0.0 0.0 0.00 0.00 0.00 47 1013.9
20260506011512 22 164 0.0 0.0 0.00 0.00 0.00 47 1013.9
20260506011010 22 250 0.0 0.0 0.00 0.00 0.00 47 1013.9
20260506010511 22 165 0.0 0.0 0.00 0.00 0.00 47 1013.8
20260506010035 22 218 0.0 0.0 0.00 0.00 0.00 47 1013.8
20260506005508 22 218 0.0 0.0 0.00 0.00 0.00 46 1013.8
20260506005011 22 240 0.0 0.0 0.00 0.00 0.00 46 1013.8
20260506004520 22 240 0.0 0.0 0.00 0.00 0.00 45 1013.8
20260506004009 22 240 0.0 0.0 0.00 0.00 0.00 45 1013.8
20260506003512 22 240 0.0 3.2 0.00 0.00 0.00 45 1013.7
20260506003024 22 240 0.0 3.2 0.00 0.00 0.00 45 1013.7
20260506002507 22 240 0.0 3.2 0.00 0.00 0.00 44 1013.7
20260506002013 22 240 0.0 3.2 0.00 0.00 0.00 44 1013.7
20260506001510 23 240 0.0 3.2 0.00 0.00 0.00 44 1013.7
20260506001005 23 240 0.0 3.2 0.00 0.00 0.00 44 1013.7
20260506000508 23 234 0.0 3.2 0.00 0.00 0.00 43 1013.8
20260506000013 23 234 0.0 3.2 0.00 0.00 0.00 43 1013.8
20260505235508 23 331 0.0 3.2 0.00 0.00 0.00 43 1013.9
20260505235008 23 214 0.0 3.2 0.00 0.00 0.00 41 1013.8
20260505234532 23 195 0.0 3.2 0.00 0.00 0.00 42 1013.6
20260505234007 23 218 0.0 3.2 0.00 0.00 0.00 42 1013.6
20260505233508 23 146 0.0 3.2 0.00 0.00 0.00 41 1013.6
20260505233033 23 269 0.0 3.2 0.00 0.00 0.00 41 1013.5
20260505232511 24 360 1.6 3.2 0.00 0.00 0.00 40 1013.6
20260505232012 24 26 0.0 3.2 0.00 0.00 0.00 40 1013.5
20260505231530 24 80 0.0 4.8 0.00 0.00 0.00 40 1013.5
20260505231010 24 177 1.6 6.4 0.00 0.00 0.00 40 1013.5
20260505230504 24 248 1.6 8.0 0.00 0.00 0.00 39 1013.6
20260505230013 24 211 1.6 17.7 0.00 0.00 0.00 39 1013.6
20260505225508 24 225 3.2 12.9 0.00 0.00 0.00 39 1013.5
20260505225011 25 42 1.6 8.0 0.00 0.00 0.00 38 1013.5
20260505224516 25 299 1.6 11.3 0.00 0.00 0.00 37 1013.5
20260505224011 25 217 3.2 12.9 0.00 0.00 0.00 37 1013.6
20260505223519 25 266 3.2 12.9 0.00 0.00 0.00 37 1013.7
20260505223022 25 171 1.6 11.3 0.00 0.00 0.00 37 1013.7
20260505222511 25 246 1.6 9.7 0.00 0.00 0.00 37 1013.7
20260505222017 25 252 3.2 11.3 0.00 0.00 0.00 37 1013.7
20260505221526 25 230 6.4 17.7 0.00 0.00 0.00 37 1013.7
20260505221013 25 70 3.2 17.7 0.00 0.00 0.00 37 1013.7
20260505220511 25 292 3.2 16.1 0.00 0.00 0.00 36 1013.7
20260505220029 26 200 3.2 11.3 0.00 0.00 0.00 36 1013.7
20260505215504 26 308 3.2 14.5 0.00 0.00 0.00 35 1013.7
20260505215008 26 134 4.8 14.5 0.00 0.00 0.00 35 1013.7
20260505214520 26 208 3.2 9.7 0.00 0.00 0.00 36 1013.6
20260505214008 26 225 3.2 11.3 0.00 0.00 0.00 36 1013.6
20260505213508 26 236 1.6 11.3 0.00 0.00 0.00 36 1013.7
20260505213022 26 295 3.2 12.9 0.00 0.00 0.00 35 1013.7
20260505212515 26 147 6.4 12.9 0.00 0.00 0.00 35 1013.7
20260505212014 26 288 1.6 9.7 0.00 0.00 0.00 35 1013.8
20260505211526 26 215 3.2 9.7 0.00 0.00 0.00 35 1013.9
20260505211008 26 203 3.2 11.3 0.00 0.00 0.00 35 1013.8
20260505210512 26 152 3.2 12.9 0.00 0.00 0.00 36 1013.9
20260505210028 26 219 1.6 12.9 0.00 0.00 0.00 36 1014.1
20260505205508 25 133 3.2 8.0 0.00 0.00 0.00 37 1014.1
20260505205015 25 148 1.6 8.0 0.00 0.00 0.00 35 1014.1
20260505204513 26 262 1.6 9.7 0.00 0.00 0.00 35 1014.1
20260505204012 26 211 3.2 8.0 0.00 0.00 0.00 37 1014.3
20260505203507 25 34 1.6 11.3 0.00 0.00 0.00 38 1014.3
20260505203036 25 241 1.6 11.3 0.00 0.00 0.00 37 1014.4
20260505202509 26 83 1.6 11.3 0.00 0.00 0.00 36 1014.2
20260505202013 26 273 3.2 11.3 0.00 0.00 0.00 36 1014.3
20260505201529 26 320 3.2 11.3 0.00 0.00 0.00 37 1014.3
20260505201009 26 226 1.6 14.5 0.00 0.00 0.00 37 1014.4
20260505200514 26 209 3.2 14.5 0.00 0.00 0.00 35 1014.5
20260505200026 26 329 3.2 8.0 0.00 0.00 0.00 36 1014.7